This is the latest recevied weather packets stored in our database for station/object KE8ZLU. If no packets are shown the sender has not sent any weather packets the latest 10 day(s).
| Time | Temp. | Humidity | Pressure | Rain* | Wind** | Luminosity | Snow |
|---|---|---|---|---|---|---|---|
| 1778258355 | 15° C | 40% | 1012.2 hPa | 0 mm | - | 92 W/m² | - |
| 1778258053 | 13.89° C | 45% | 1012.4 hPa | 0 mm | - | 90 W/m² | - |
| 1778257748 | 13.89° C | 40% | 1012.3 hPa | 0 mm | - | 88 W/m² | - |
| 1778257446 | 13.89° C | 39% | 1012.3 hPa | 0 mm | - | 618 W/m² | - |
| 1778257143 | 13.89° C | 44% | 1012.3 hPa | 0 mm | - | 700 W/m² | - |
| 1778256840 | 13.89° C | 40% | 1012.4 hPa | 0 mm | - | 691 W/m² | - |
| 1778256537 | 13.89° C | 44% | 1012.5 hPa | 0 mm | - | 685 W/m² | - |
| 1778256236 | 13.89° C | 39% | 1012.4 hPa | 0 mm | - | 683 W/m² | - |
| 1778255932 | 13.89° C | 44% | 1012.6 hPa | 0 mm | - | 675 W/m² | - |
| 1778255629 | 13.33° C | 49% | 1012.6 hPa | 0 mm | - | 667 W/m² | - |
| 1778255326 | 13.89° C | 45% | 1012.8 hPa | 0 mm | - | 670 W/m² | - |
| 1778255024 | 13.33° C | 48% | 1012.6 hPa | 0 mm | - | 660 W/m² | - |
| 1778254720 | 13.33° C | 47% | 1012.8 hPa | 0 mm | - | 655 W/m² | - |
| 1778254417 | 12.78° C | 47% | 1013.1 hPa | 0 mm | - | 641 W/m² | - |
| 1778254113 | 12.22° C | 49% | 1012.8 hPa | 0 mm | - | 633 W/m² | - |
| 1778253810 | 12.78° C | 54% | 1012.9 hPa | 0 mm | - | 626 W/m² | - |
| 1778253506 | 12.78° C | 47% | 1013 hPa | 0 mm | - | 615 W/m² | - |
| 1778253203 | 12.78° C | 49% | 1013.1 hPa | 0 mm | - | 605 W/m² | - |
| 1778252899 | 12.78° C | 52% | 1013.1 hPa | 0 mm | - | 594 W/m² | - |
| 1778252596 | 12.22° C | 53% | 1012.8 hPa | 0 mm | - | 587 W/m² | - |
| 1778252292 | 12.78° C | 52% | 1012.9 hPa | 0 mm | - | 577 W/m² | - |
| 1778251989 | 12.78° C | 56% | 1013 hPa | 0 mm | - | 567 W/m² | - |
| 1778251686 | 12.22° C | 53% | 1013.1 hPa | 0 mm | - | 556 W/m² | - |
| 1778251384 | 12.22° C | 57% | 1013.2 hPa | 0 mm | - | 547 W/m² | - |
| 1778251081 | 12.22° C | 63% | 1013.3 hPa | 0 mm | - | 531 W/m² | - |
* Rain latest hour (hover to see other rain measurements)
** Current wind speed in m/s (hover to see current wind gust speed)